Regional Weather Roundup
Issued by NWS Albany, NY

Home | Current Version | Previous Version | Text Only | Print | Product List | Glossary On
Versions: 1 2 3 4 5 6 7 8 9 10 11 12 13 14 15 16 17 18 19 20 21 22 23 24 25 26 27 28 29 30 31 32 33 34 35 36 37 38 39 40 41 42 43 44 45 46 47 48 49 50
000
ASUS41 KALY 280610
RWRALY

NEW YORK STATE HOURLY WEATHER ROUNDUP
NATIONAL WEATHER SERVICE ALBANY NY
200 AM EDT TUE JUL 28 2015

NOTE: "FAIR" INDICATES FEW OR NO CLOUDS BELOW 12,000 FEET WITH NO
SIGNIFICANT WEATHER AND/OR NO OBSTRUCTIONS TO VISIBILITY.

NYZ032-033-038>043-046>054-057>066-NYZ062>081-280700-
EAST


CITY           SKY/WX    TMP DP  RH WIND       PRES   REMARKS
ALBANY         PTCLDY    73  68  84 S5        30.01R
GLENS FALLS    PTCLDY    65  63  93 CALM      30.00R FOG
POUGHKEEPSIE   CLEAR     70  67  90 CALM      30.00S
NEWBURGH       CLEAR     70  68  94 CALM      30.03S
MONTGOMERY     CLEAR     66  65  96 CALM      30.02S
WHITE PLAINS   CLEAR     70  68  93 CALM      30.01F
ISLIP          MOCLDY    74  71  91 SW7       30.00F
NEW YORK CITY  CLEAR     77  67  71 SW8       30.00F
CENTRAL PARK   CLEAR     77  67  71 MISG      30.04S
$$

NYZ005>009-017-018-044>046-055-056-280700-
CENTRAL


CITY           SKY/WX    TMP DP  RH WIND       PRES   REMARKS
FULTON         CLEAR     62  60  93 CALM      30.01S
SYRACUSE       PTCLDY    68  66  93 E3        30.01R
ROME           CLEAR     62  59  90 CALM      30.03S
ELMIRA         CLEAR     60  59  96 CALM      30.06R
BINGHAMTON     CLEAR     70  63  78 CALM      30.07S
MONTICELLO     CLOUDY    63  63 100 CALM      30.08R VSB 3/4
$$

NYZ026>034-041>043-280700-
NORTH


CITY           SKY/WX    TMP DP  RH WIND       PRES   REMARKS
WATERTOWN      CLEAR     67  56  67 S6        29.99S
FORT DRUM      NOT AVBL
MASSENA        PTCLDY    66  62  87 CALM      29.98S
SARANAC LAKE   MOCLDY    64  61  90 N5        30.04S
PLATTSBURGH    TSTM      67  65  93 SW8       29.97F
$$

NYZ001>004-010>016-019>021-280700-
WEST


CITY           SKY/WX    TMP DP  RH WIND       PRES   REMARKS
NIAGARA FALLS  CLEAR     73  60  63 W6        30.03R
BUFFALO        CLEAR     71  65  81 S6        30.04S
DUNKIRK        CLEAR     64  61  90 S3        30.05S
JAMESTOWN      CLEAR     68  57  68 CALM      30.11S
WELLSVILLE     CLEAR     66  59  78 CALM      30.13S
ROCHESTER      MOCLDY    69  65  86 SW5       30.03S
PENN YAN       CLEAR     68  65  90 SW5       30.05S
$$

             KEY
       WCI = WIND CHILL INDEX
       VSB = VISIBILITY
       HX  = HEAT INDEX
$$


USA.gov is the U.S. government's official web portal to all federal, state and local government web resources and services.